Location: Bad Rothenbrunn
(47.2167°N, 11.2167°E)
Time: 10:59:53
(UTC+00:00)

Cosmos 2322 Rocket - Pass Details

Date: 03 March 2021
Orbit: 832 x 852 km, 71.0° (Epoch: 22 April)

Event Time Altitude Azimuth Distance (km) Brightness Sun altitude
Rises 19:07:00 0° 233° (SW) 3,367 5.9 -21.6°
Reaches altitude 10° 19:09:38 10° 242° (WSW) 2,438 5.2 -22.1°
Maximum altitude 19:14:44 35° 308° (NW) 1,316 3.7 -22.9°
Drops below altitude 10° 19:19:52 10° 14° (NNE) 2,457 4.6 -23.7°
Sets 19:22:32 0° 23° (NNE) 3,398 5.3 -24.2°
